Flag for Romania Weather past 2 weeks in Brăila, Romania

Now
93 °F

Partly sunny.


Feels Like: 92 °F
Forecast: 68 / 92 °F
Wind: 3 mph from Southeast

Location: Galati

Current Time: Sep 5, 2015 at 5:42:10 PM

Latest Report: Sep 5, 2015 at 5:00 PM


Visibility: 13 mi

Pressure: 29.83 "Hg

Humidity: 31%

Dew point: 58 °F

Location of BrăilaLocation

Historic Weather in Brăila — Graph

°F

Brăila temperature yesterday

Maximum temperature yesterday: 91 °F (at 4:00 PM)
Minimum temperature yesterday: 66 °F (at 7:00 AM)
Average temperature yesterday: 78 °F

Past Weeks' High & Low Weather Summary

 TemperatureHumidityPressure
High98 °F (Sep 2, 5:00 PM)100% (Sep 3, 6:00 AM)30.26 "Hg (Sep 3, 6:00 AM)
Low60 °F (Aug 22, 7:00 AM)14% (Sep 1, 3:00 PM)29.82 "Hg (Sep 2, 6:00 PM)
Average77 °F54%30.04 "Hg
* Reported Aug 21 4:00 PM — Sep 5 4:00 PM, Brăila, Weather by CustomWeather, © 2015

Note: Actual official high and low records may vary slightly from our data, if they occured in-between our weather recording intervals... More about our weather records

Advertising

Brăila weather history for previous 24 hours

 ConditionsComfort  
Time TempWeatherWind HumidityBarometerVisibility
4:00 PM
Sat, Sep 5
93 °FPartly sunny.3 mph29%29.86 "Hg12 mi
3:00 PM92 °FScattered clouds.2 mph35%29.88 "Hg12 mi
2:00 PM90 °FPassing clouds.2 mph36%29.90 "Hg12 mi
1:00 PM86 °FPassing clouds.2 mph43%29.93 "Hg12 mi
12:00 PM82 °FPassing clouds.2 mph55%29.93 "Hg12 mi
11:00 AM79 °FPassing clouds.3 mph58%29.94 "Hg12 mi
10:00 AM75 °FPassing clouds.2 mph65%29.94 "Hg12 mi
9:00 AM73 °FPassing clouds.1 mph70%29.95 "Hg12 mi
8:00 AM70 °FPassing clouds.1 mph79%29.94 "Hg12 mi
7:00 AM69 °FPassing clouds.1 mph82%29.93 "Hg12 mi
6:00 AM72 °FClear.No wind74%29.91 "Hg12 mi
5:00 AM72 °FClear.2 mph73%29.92 "Hg12 mi
4:00 AM72 °FClear.2 mph75%29.92 "Hg12 mi
3:00 AM71 °FClear.1 mph73%29.93 "Hg12 mi
2:00 AM73 °FClear.1 mph71%29.93 "Hg12 mi
1:00 AM75 °FClear.2 mph63%29.92 "Hg12 mi
12:00 AM77 °FClear.3 mph58%29.90 "Hg12 mi
11:00 PM
Fri, Sep 4
78 °FClear.2 mph54%29.90 "Hg12 mi
10:00 PM79 °FClear.2 mph43%29.88 "Hg12 mi
9:00 PM79 °FPassing clouds.1 mph39%29.88 "Hg12 mi
7:00 PM86 °FOvercast.1 mph25%29.88 "Hg12 mi
6:00 PM90 °FPartly sunny.2 mph19%29.87 "Hg12 mi
5:00 PM91 °FScattered clouds.3 mph20%29.89 "Hg12 mi
Weather by CustomWeather, © 2015

See weather overviewHow to use our weather pages